Date String (YYYY-MM-DD hh:mm:ss) UTC,Instrument flags,absolute air pressure of the measurement (hPa),sample flow rate (lpm),inlet stack bypass flow (lpm),air temperature of the measurement (°C),ambient temperature measured by the external sensor (°C),aerosol sample conditioner tube jacket temperature (°C),OPC LED temperature (°C),internal box temperature (°C),relative humidity of the measurement (%),span deviation,mass concentration of particles derived from Lorenz-Mie calculation of OPC scattering (μg/m³),mass concentration of particles derived from Lorenz-Mie calculation of OPC scattering (μg/m³),mass concentration of particles derived from Lorenz-Mie calculation of OPC scattering (μg/m³)
DateTimeUTC,F1_M11,P_M11,Q1_M11,Q2_M11,T1_M11,T2_M11,T3_M11,T4_M11,T5_M11,U1_M11,ZSPAN_M11,X0_M11,X2_M11,X1_M11
2024-05-03 11:00:00,SystemResetWarning,0824.4,5.00,000.00,023.8,023.0,000.0,032.3,025.5,015.1,0000.0,0011.35,0003.92,0002.74
2024-05-03 11:01:00,SystemResetWarning,0824.4,5.00,000.00,023.8,023.0,000.0,032.3,025.5,014.9,0000.0,0011.27,0003.88,0002.71
2024-05-03 11:02:00,SystemResetWarning,0824.4,5.00,000.00,023.8,023.0,000.0,032.3,025.5,014.7,0000.0,0011.84,0003.87,0002.68
2024-05-03 11:03:00,SystemResetWarning,0824.4,5.00,000.00,023.8,023.0,000.0,032.3,025.5,014.7,0000.0,0012.37,0003.80,0002.66
2024-05-03 11:04:00,SystemResetWarning,0824.3,5.01,000.00,023.8,023.0,000.0,032.3,025.5,014.7,0000.0,0011.85,0003.80,0002.65
2024-05-03 11:05:00,SystemResetWarning,0824.4,5.00,000.00,023.7,022.9,000.0,032.3,025.5,014.6,0000.0,0011.15,0003.83,0002.64
2024-05-03 11:06:00,SystemResetWarning,0824.4,5.00,000.00,023.7,022.9,000.0,032.2,025.5,014.6,0000.0,0010.96,0003.81,0002.61
2024-05-03 11:07:00,SystemResetWarning,0824.4,5.00,000.00,023.7,022.9,000.0,032.2,025.5,015.0,0000.0,0010.46,0003.80,0002.59
2024-05-03 11:08:00,SystemResetWarning,0824.4,5.01,000.00,023.7,022.8,000.0,032.2,025.4,015.0,0000.0,0010.04,0003.77,0002.57
2024-05-03 11:09:00,SystemResetWarning,0824.4,5.00,000.00,023.7,022.8,000.0,032.2,025.3,015.0,0000.0,0009.92,0003.74,0002.58
2024-05-03 11:10:00,SystemResetWarning,0824.3,5.00,000.00,023.6,022.8,000.0,032.2,025.4,015.0,0000.0,0009.05,0003.70,0002.57
2024-05-03 11:11:00,SystemResetWarning,0824.3,5.00,000.00,023.6,022.8,000.0,032.2,025.4,014.8,0000.0,0009.51,0003.76,0002.59
2024-05-03 11:12:00,SystemResetWarning,0824.3,5.01,000.00,023.6,022.8,000.0,032.2,025.3,014.8,0000.0,0009.98,0003.79,0002.60
2024-05-03 11:13:00,SystemResetWarning,0824.3,5.01,000.00,023.6,022.7,000.0,032.2,025.3,014.8,0000.0,0009.38,0003.78,0002.60
2024-05-03 11:14:00,SystemResetWarning,0824.2,5.00,000.00,023.6,022.7,000.0,032.1,025.2,015.2,0000.0,0009.38,0003.87,0002.60
2024-05-03 11:15:00,SystemResetWarning,0824.2,4.99,000.00,023.5,022.7,000.0,032.1,025.2,016.1,0000.0,0009.60,0003.90,0002.61
2024-05-03 11:16:00,SystemResetWarning,0824.1,5.00,000.00,023.5,022.6,000.0,032.1,025.2,015.5,0000.0,0009.71,0003.88,0002.62
2024-05-03 11:17:00,SystemResetWarning,0824.1,5.00,000.00,023.5,022.6,000.0,032.1,025.2,015.6,0000.0,0009.66,0003.84,0002.63
2024-05-03 11:18:00,SystemResetWarning,0824.2,5.00,000.00,023.5,022.6,000.0,032.1,025.2,015.5,0000.0,0009.77,0003.86,0002.67
2024-05-03 11:19:00,SystemResetWarning,0824.2,5.00,000.00,023.5,022.6,000.0,032.1,025.1,015.7,0000.0,0010.54,0003.89,0002.70
2024-05-03 11:20:00,SystemResetWarning,0824.2,5.00,000.00,023.4,022.6,000.0,032.1,025.1,015.8,0000.0,0011.15,0003.92,0002.69
2024-05-03 11:21:00,SystemResetWarning,0824.1,5.00,000.00,023.4,022.6,000.0,032.1,025.1,016.2,0000.0,0011.38,0003.96,0002.70
2024-05-03 11:22:00,SystemResetWarning,0824.1,5.00,000.00,023.4,022.5,000.0,032.0,025.1,016.6,0000.0,0011.25,0003.97,0002.71
2024-05-03 11:23:00,SystemResetWarning,0824.1,4.99,000.00,023.4,022.6,000.0,032.0,025.2,016.6,0000.0,0010.90,0003.99,0002.72
2024-05-03 11:24:00,SystemResetWarning,0824.2,5.00,000.00,023.4,022.6,000.0,032.0,025.1,016.4,0000.0,0010.88,0004.01,0002.74
2024-05-03 11:25:00,SystemResetWarning,0824.1,5.00,000.00,023.4,022.5,000.0,032.0,025.1,016.3,0000.0,0010.80,0003.99,0002.76
2024-05-03 11:26:00,SystemResetWarning,0824.1,5.01,000.00,023.4,022.5,000.0,031.9,025.1,016.4,0000.0,0011.79,0003.96,0002.75
2024-05-03 11:27:00,SystemResetWarning,0824.1,5.01,000.00,023.3,022.5,000.0,031.9,025.1,016.4,0000.0,0011.80,0003.94,0002.75
2024-05-03 11:28:00,SystemResetWarning,0824.1,5.01,000.00,023.3,022.5,000.0,031.9,025.1,016.5,0000.0,0012.54,0004.01,0002.78
2024-05-03 11:29:00,SystemResetWarning,0824.1,4.99,000.00,023.3,022.5,000.0,031.9,025.1,016.2,0000.0,0012.80,0004.02,0002.79
2024-05-03 11:30:00,SystemResetWarning,0824.2,4.99,000.00,023.3,022.4,000.0,031.9,025.0,016.1,0000.0,0012.13,0004.05,0002.79
2024-05-03 11:31:00,SystemResetWarning,0824.1,5.00,000.00,023.3,022.4,000.0,031.9,025.0,016.2,0000.0,0011.66,0004.00,0002.79
2024-05-03 11:32:00,SystemResetWarning,0824.2,5.01,000.00,023.2,022.4,000.0,031.9,024.9,016.4,0000.0,0011.60,0003.95,0002.79
2024-05-03 11:33:00,SystemResetWarning,0824.2,5.01,000.00,023.2,022.4,000.0,031.9,024.9,017.0,0000.0,0011.76,0003.95,0002.81
2024-05-03 11:34:00,SystemResetWarning,0824.1,5.00,000.00,023.2,022.3,000.0,031.9,024.9,017.2,0000.0,0011.83,0003.92,0002.83
2024-05-03 11:35:00,SystemResetWarning,0824.0,4.99,000.00,023.2,022.3,000.0,031.8,024.8,017.3,0000.0,0012.32,0003.92,0002.84
2024-05-03 11:36:00,SystemResetWarning,0824.0,4.99,000.00,023.1,022.3,000.0,031.8,024.8,017.1,0000.0,0012.69,0003.93,0002.86
2024-05-03 11:37:00,SystemResetWarning,0824.0,5.01,000.00,023.1,022.2,000.0,031.8,024.7,016.8,0000.0,0011.25,0003.93,0002.87
2024-05-03 11:38:00,SystemResetWarning,0824.0,5.01,000.00,023.1,022.2,000.0,031.8,024.7,016.6,0000.0,0011.71,0003.90,0002.89
2024-05-03 11:39:00,SystemResetWarning,0824.0,5.00,000.00,023.1,022.2,000.0,031.7,024.8,016.8,0000.0,0011.23,0003.92,0002.89
2024-05-03 11:40:00,SystemResetWarning,0823.9,5.00,000.00,023.0,022.2,000.0,031.7,024.7,016.9,0000.0,0011.06,0003.97,0002.89
2024-05-03 11:41:00,SystemResetWarning,0824.0,5.00,000.00,023.0,022.2,000.0,031.7,024.6,016.8,0000.0,0011.25,0003.96,0002.88
2024-05-03 11:42:00,SystemResetWarning,0824.0,4.99,000.00,023.0,022.2,000.0,031.7,024.6,016.6,0000.0,0011.10,0003.95,0002.90
2024-05-03 11:43:00,SystemResetWarning,0823.9,5.00,000.00,022.9,022.1,000.0,031.6,024.6,016.4,0000.0,0010.88,0003.99,0002.90
2024-05-03 11:44:00,SystemResetWarning,0824.0,4.99,000.00,022.9,022.1,000.0,031.6,024.6,016.4,0000.0,0010.75,0004.01,0002.89
2024-05-03 11:45:00,SystemResetWarning,0824.0,5.00,000.00,022.9,022.1,000.0,031.6,024.6,016.5,0000.0,0010.37,0004.00,0002.85
2024-05-03 11:46:00,SystemResetWarning,0824.0,5.01,000.00,022.9,022.1,000.0,031.6,024.6,016.5,0000.0,0010.28,0004.03,0002.85
2024-05-03 11:47:00,SystemResetWarning,0824.0,5.00,000.00,022.9,022.1,000.0,031.6,024.6,016.4,0000.0,0010.32,0004.05,0002.84
2024-05-03 11:48:00,SystemResetWarning,0824.0,5.00,000.00,022.9,022.0,000.0,031.5,024.6,016.3,0000.0,0010.30,0004.05,0002.84
2024-05-03 11:49:00,SystemResetWarning,0823.9,4.99,000.00,022.8,022.0,000.0,031.5,024.5,016.2,0000.0,0009.51,0004.07,0002.84
2024-05-03 11:50:00,SystemResetWarning,0823.9,4.99,000.00,022.8,022.0,000.0,031.5,024.5,016.2,0000.0,0009.39,0004.02,0002.82
2024-05-03 11:51:00,SystemResetWarning,0823.8,5.00,000.00,022.8,022.0,000.0,031.5,024.5,016.1,0000.0,0009.11,0003.94,0002.81
2024-05-03 11:52:00,SystemResetWarning,0823.8,5.00,000.00,022.8,022.0,000.0,031.5,024.5,016.0,0000.0,0008.80,0003.89,0002.80
2024-05-03 11:53:00,SystemResetWarning,0823.8,5.01,000.00,022.8,022.0,000.0,031.4,024.5,015.9,0000.0,0008.96,0003.94,0002.79
2024-05-03 11:54:00,SystemResetWarning,0823.8,4.98,000.00,022.8,022.0,000.0,031.4,024.5,015.9,0000.0,0009.37,0003.92,0002.79
2024-05-03 11:55:00,SystemResetWarning,0823.8,4.99,000.00,022.8,022.0,000.0,031.4,024.5,015.9,0000.0,0009.99,0003.88,0002.77
2024-05-03 11:56:00,SystemResetWarning,0823.8,5.00,000.00,022.8,022.0,000.0,031.4,024.5,015.9,0000.0,0010.10,0003.88,0002.76
2024-05-03 11:57:00,SystemResetWarning,0823.8,5.01,000.00,022.7,022.0,000.0,031.4,024.5,015.9,0000.0,0009.96,0003.84,0002.75
2024-05-03 11:58:00,SystemResetWarning,0823.9,5.00,000.00,022.7,021.9,000.0,031.4,024.4,016.0,0000.0,0009.43,0003.81,0002.74
2024-05-03 11:59:00,SystemResetWarning,0823.8,5.01,000.00,022.7,021.9,000.0,031.3,024.5,016.5,0000.0,0009.80,0003.79,0002.72
